FW6754 Weather Reports


Display with metric or nautical units.
time (UTC)temp
F
wind
direction
speed
MPH
gust
MPH
rain 1hr
in
rain 24hr
in
rain mn
in
humidity
%
barometer
mb
20260904221912 64 0.0 0.0 0.00 0.00 0.00 10 1022.2
20260904221415 65 0.0 0.0 0.00 0.00 0.00 10 1022.2
20260904220915 65 0.0 0.0 0.00 0.00 0.00 10 1022.1
20260904220412 65 0.0 0.0 0.00 0.00 0.00 10 1022.1
20260904215913 65 0.0 0.0 0.00 0.00 0.00 10 1022.2
20260904215412 65 0.0 0.0 0.00 0.00 0.00 10 1022.2
20260904214912 66 0.0 0.0 0.00 0.00 0.00 10 1022.2
20260904214412 66 0.0 0.0 0.00 0.00 0.00 10 1022.2
20260904213913 66 0.0 0.0 0.00 0.00 0.00 10 1022.2
20260904213412 66 0.0 0.0 0.00 0.00 0.00 10 1022.1
20260904212411 66 0.0 0.0 0.00 0.00 0.00 10 1022.1
20260904210912 67 0.0 0.0 0.00 0.00 0.00 10 1021.9
20260904205913 67 0.0 0.0 0.00 0.00 0.00 10 1021.9
20260904205413 68 0.0 0.0 0.00 0.00 0.00 10 1021.9
20260904204912 68 0.0 0.0 0.00 0.00 0.00 10 1021.8
20260904204413 68 0.0 0.0 0.00 0.00 0.00 10 1021.8
20260904203912 68 0.0 0.0 0.00 0.00 0.00 10 1021.8
20260904203411 68 0.0 0.0 0.00 0.00 0.00 10 1021.9
20260904202412 68 0.0 0.0 0.00 0.00 0.00 10 1021.6
20260904201912 68 0.0 0.0 0.00 0.00 0.00 10 1021.7
20260904201411 68 0.0 0.0 0.00 0.00 0.00 10 1021.6
20260904200412 69 0.0 0.0 0.00 0.00 0.00 10 1021.5
20260904195413 69 0.0 0.0 0.00 0.00 0.00 10 1021.4
20260904194911 69 0.0 0.0 0.00 0.00 0.00 10 1021.3
20260904194411 69 0.0 0.0 0.00 0.00 0.00 10 1021.3
20260904193412 69 0.0 0.0 0.00 0.00 0.00 10 1020.9
20260904192411 70 0.0 0.0 0.00 0.00 0.00 99 1021.0
20260904191911 70 0.0 0.0 0.00 0.00 0.00 95 1020.9
20260904191411 70 0.0 0.0 0.00 0.00 0.00 91 1020.9
20260904190911 71 0.0 0.0 0.00 0.00 0.00 89 1020.7
20260904190412 71 0.0 0.0 0.00 0.00 0.00 86 1020.7
20260904185912 71 0.0 0.0 0.00 0.00 0.00 83 1020.5
20260904185411 72 0.0 0.0 0.00 0.00 0.00 79 1020.5
20260904184912 72 0.0 0.0 0.00 0.00 0.00 74 1020.4
20260904183411 74 0.0 0.0 0.00 0.00 0.00 60 1020.0
20260904182911 75 0.0 0.0 0.00 0.00 0.00 56 1019.8
20260904182412 76 0.0 0.0 0.00 0.00 0.00 51 1019.7
20260904181911 77 0.0 0.0 0.00 0.00 0.00 47 1019.5
20260904181411 77 0.0 0.0 0.00 0.00 0.00 45 1019.5
20260904180912 78 0.0 0.0 0.00 0.00 0.00 43 1019.5
20260904180412 79 0.0 0.0 0.00 0.00 0.00 42 1019.4
20260904175912 79 0.0 0.0 0.00 0.00 0.00 41 1019.3
20260904175411 80 0.0 0.0 0.00 0.00 0.00 39 1019.3
20260904174411 81 0.0 0.0 0.00 0.00 0.00 37 1019.0
20260904172911 83 0.0 0.0 0.00 0.00 0.00 35 1018.9
20260904172411 83 0.0 0.0 0.00 0.00 0.00 35 1018.8
20260904171911 84 0.0 0.0 0.00 0.00 0.00 35 1018.8
20260904171412 84 0.0 0.0 0.00 0.00 0.00 35 1018.7
20260904170913 84 0.0 0.0 0.00 0.00 0.00 35 1018.6
20260904170411 84 0.0 0.0 0.00 0.00 0.00 35 1018.6
20260904165412 85 0.0 0.0 0.00 0.00 0.00 35 1018.6
20260904164912 85 0.0 0.0 0.00 0.00 0.00 36 1018.6
20260904164411 85 0.0 0.0 0.00 0.00 0.00 37 1018.6
20260904163912 85 0.0 0.0 0.00 0.00 0.00 38 1018.4
20260904163412 86 0.0 0.0 0.00 0.00 0.00 39 1018.5
20260904162912 86 0.0 0.0 0.00 0.00 0.00 39 1018.5
20260904162413 86 0.0 0.0 0.00 0.00 0.00 38 1018.5
20260904161912 86 0.0 0.0 0.00 0.00 0.00 37 1018.5
20260904161411 86 0.0 0.0 0.00 0.00 0.00 37 1018.5
20260904160911 87 0.0 0.0 0.00 0.00 0.00 37 1018.4
20260904155412 88 0.0 0.0 0.00 0.00 0.00 36 1018.3
20260904154912 88 0.0 0.0 0.00 0.00 0.00 36 1018.4
20260904154412 88 0.0 0.0 0.00 0.00 0.00 36 1018.3
20260904153912 88 0.0 0.0 0.00 0.00 0.00 35 1018.2
20260904153412 88 0.0 0.0 0.00 0.00 0.00 35 1018.2
20260904152912 89 0.0 0.0 0.00 0.00 0.00 35 1018.3
20260904152412 89 0.0 0.0 0.00 0.00 0.00 35 1018.2
20260904151911 89 0.0 0.0 0.00 0.00 0.00 36 1018.1
20260904150413 90 0.0 0.0 0.00 0.00 0.00 38 1018.1
20260904145912 89 0.0 0.0 0.00 0.00 0.00 36 1018.1
20260904145412 90 0.0 0.0 0.00 0.00 0.00 37 1018.2
20260904144912 90 0.0 0.0 0.00 0.00 0.00 37 1018.1
20260904144412 89 0.0 0.0 0.00 0.00 0.00 36 1018.1
20260904143912 90 0.0 0.0 0.00 0.00 0.00 37 1018.1
20260904143412 90 0.0 0.0 0.00 0.00 0.00 38 1018.1
20260904142911 90 0.0 0.0 0.00 0.00 0.00 37 1018.1
20260904142412 90 0.0 0.0 0.00 0.00 0.00 38 1018.1
20260904141412 90 0.0 0.0 0.00 0.00 0.00 37 1018.2
20260904140912 90 0.0 0.0 0.00 0.00 0.00 37 1018.1
20260904140411 90 0.0 0.0 0.00 0.00 0.00 38 1018.1
20260904135411 90 0.0 0.0 0.00 0.00 0.00 39 1018.3
20260904134412 90 0.0 0.0 0.00 0.00 0.00 38 1018.3
20260904133913 90 0.0 0.0 0.00 0.00 0.00 38 1018.2
20260904133412 90 0.0 0.0 0.00 0.00 0.00 39 1018.3
20260904132912 90 0.0 0.0 0.00 0.00 0.00 40 1018.4
20260904132412 90 0.0 0.0 0.00 0.00 0.00 41 1018.3
20260904131912 90 0.0 0.0 0.00 0.00 0.00 40 1018.4
20260904131412 91 0.0 0.0 0.00 0.00 0.00 41 1018.4
20260904130912 90 0.0 0.0 0.00 0.00 0.00 41 1018.5
20260904130411 91 0.0 0.0 0.00 0.00 0.00 41 1018.4
20260904125911 89 0.0 0.0 0.00 0.00 0.00 42 1018.5
20260904124412 88 0.0 0.0 0.00 0.00 0.00 42 1018.8
20260904123913 89 0.0 0.0 0.00 0.00 0.00 43 1018.9
20260904123412 90 0.0 0.0 0.00 0.00 0.00 44 1018.7
20260904122912 90 0.0 0.0 0.00 0.00 0.00 44 1018.7
20260904122412 90 0.0 0.0 0.00 0.00 0.00 46 1018.8
20260904121913 87 0.0 0.0 0.00 0.00 0.00 48 1019.0
20260904121411 87 0.0 0.0 0.00 0.00 0.00 51 1019.0
20260904120911 87 0.0 0.0 0.00 0.00 0.00 52 1019.1
20260904120411 86 0.0 0.0 0.00 0.00 0.00 52 1019.1
20260904115912 86 0.0 0.0 0.00 0.00 0.00 52 1019.2
20260904114412 86 0.0 0.0 0.00 0.00 0.00 53 1019.3
20260904113911 85 0.0 0.0 0.00 0.00 0.00 55 1019.4
20260904112912 85 0.0 0.0 0.00 0.00 0.00 56 1019.5
20260904112412 85 0.0 0.0 0.00 0.00 0.00 58 1019.5
20260904111911 84 0.0 0.0 0.00 0.00 0.00 61 1019.5
20260904111411 84 0.0 0.0 0.00 0.00 0.00 63 1019.6
20260904110413 84 0.0 0.0 0.00 0.00 0.00 67 1019.7
20260904105912 83 0.0 0.0 0.00 0.00 0.00 68 1019.8
20260904105412 83 0.0 0.0 0.00 0.00 0.00 71 1019.8
20260904104912 83 0.0 0.0 0.00 0.00 0.00 72 1019.8
20260904104412 82 0.0 0.0 0.00 0.00 0.00 73 1019.9
20260904103912 82 0.0 0.0 0.00 0.00 0.00 80 1020.0
20260904103413 82 0.0 0.0 0.00 0.00 0.00 83 1019.9
20260904102912 82 0.0 0.0 0.00 0.00 0.00 87 1020.1
20260904102412 81 0.0 0.0 0.00 0.00 0.00 88 1020.2
20260904101911 81 0.0 0.0 0.00 0.00 0.00 91 1020.2
20260904101411 81 0.0 0.0 0.00 0.00 0.00 91 1020.3
20260904100413 81 0.0 0.0 0.00 0.00 0.00 99 1020.3
20260904095911 80 0.0 0.0 0.00 0.00 0.00 10 1020.4
20260904095412 80 0.0 0.0 0.00 0.00 0.00 10 1020.5
20260904094911 80 0.0 0.0 0.00 0.00 0.00 10 1020.5
20260904093912 79 0.0 0.0 0.00 0.00 0.00 10 1020.6
20260904093412 79 0.0 0.0 0.00 0.00 0.00 10 1020.6
20260904092911 79 0.0 0.0 0.00 0.00 0.00 10 1020.7
20260904092411 79 0.0 0.0 0.00 0.00 0.00 10 1020.8
20260904091412 78 0.0 0.0 0.00 0.00 0.00 10 1020.8
20260904090411 77 0.0 0.0 0.00 0.00 0.00 10 1020.9
20260904085411 76 0.0 0.0 0.00 0.00 0.00 10 1020.9
20260904084412 75 0.0 0.0 0.00 0.00 0.00 10 1021.0
20260904083913 75 0.0 0.0 0.00 0.00 0.00 10 1021.0
20260904083411 74 0.0 0.0 0.00 0.00 0.00 10 1020.9
20260904082912 74 0.0 0.0 0.00 0.00 0.00 10 1021.1
20260904082411 73 0.0 0.0 0.00 0.00 0.00 10 1021.2
20260904081912 73 0.0 0.0 0.00 0.00 0.00 10 1021.3
20260904081412 72 0.0 0.0 0.00 0.00 0.00 10 1021.3
20260904080912 72 0.0 0.0 0.00 0.00 0.00 10 1021.3
20260904080412 71 0.0 0.0 0.00 0.00 0.00 10 1021.4
20260904075912 71 0.0 0.0 0.00 0.00 0.00 10 1021.5
20260904075411 71 0.0 0.0 0.00 0.00 0.00 10 1021.5
20260904074911 71 0.0 0.0 0.00 0.00 0.00 10 1021.5
20260904074411 70 0.0 0.0 0.00 0.00 0.00 10 1021.6
20260904073911 70 0.0 0.0 0.00 0.00 0.00 10 1021.6
20260904072911 69 0.0 0.0 0.00 0.00 0.00 10 1021.6
20260904072411 69 0.0 0.0 0.00 0.00 0.00 10 1021.7
20260904071912 69 0.0 0.0 0.00 0.00 0.00 10 1021.6
20260904071412 68 0.0 0.0 0.00 0.00 0.00 10 1021.7
20260904070912 68 0.0 0.0 0.00 0.00 0.00 10 1021.6
20260904065912 67 0.0 0.0 0.00 0.00 0.00 10 1021.7
20260904065412 66 0.0 0.0 0.00 0.00 0.00 10 1021.7
20260904064912 65 0.0 0.0 0.00 0.00 0.00 10 1021.7
20260904064411 64 0.0 0.0 0.00 0.00 0.00 10 1021.7
20260904063412 62 0.0 0.0 0.00 0.00 0.00 10 1021.8
20260904062912 61 0.0 0.0 0.00 0.00 0.00 10 1021.9
20260904062412 61 0.0 0.0 0.00 0.00 0.00 10 1021.9
20260904061912 60 0.0 0.0 0.00 0.00 0.00 10 1021.8
20260904061412 60 0.0 0.0 0.00 0.00 0.00 10 1021.8
20260904060911 60 0.0 0.0 0.00 0.00 0.00 10 1021.8
20260904060412 60 0.0 0.0 0.00 0.00 0.00 10 1021.8
20260904055912 60 0.0 0.0 0.00 0.00 0.00 10 1021.8
20260904055412 59 0.0 0.0 0.00 0.00 0.00 10 1021.7
20260904054912 59 0.0 0.0 0.00 0.00 0.00 10 1021.8
20260904054412 59 0.0 0.0 0.00 0.00 0.00 10 1021.8
20260904053912 59 0.0 0.0 0.00 0.00 0.00 10 1021.7
20260904053412 59 0.0 0.0 0.00 0.00 0.00 10 1021.7
20260904052413 59 0.0 0.0 0.00 0.00 0.00 10 1021.7
20260904051912 59 0.0 0.0 0.00 0.00 0.00 10 1021.7
20260904051412 59 0.0 0.0 0.00 0.00 0.00 10 1021.8
20260904050912 59 0.0 0.0 0.00 0.00 0.00 10 1021.7
20260904045413 59 0.0 0.0 0.00 0.00 0.00 10 1021.8
20260904044913 59 0.0 0.0 0.00 0.00 0.00 10 1021.9
20260904044413 59 0.0 0.0 0.00 0.00 0.00 10 1021.9
20260904043412 59 0.0 0.0 0.00 0.00 0.00 10 1021.9
20260904042411 59 0.0 0.0 0.00 0.00 0.00 10 1021.8
20260904041915 59 0.0 0.0 0.00 0.00 0.00 10 1022.0
20260904041412 59 0.0 0.0 0.00 0.00 0.00 10 1022.0
20260904040412 59 0.0 0.0 0.00 0.00 0.00 10 1022.1
20260904035912 59 0.0 0.0 0.00 0.00 0.00 10 1022.1
20260904034413 59 0.0 0.0 0.00 0.00 0.00 10 1022.2
20260904033912 59 0.0 0.0 0.00 0.00 0.00 10 1022.2
20260904033412 59 0.0 0.0 0.00 0.00 0.00 10 1022.3
20260904032912 59 0.0 0.0 0.00 0.00 0.00 10 1022.3
20260904032412 59 0.0 0.0 0.00 0.00 0.00 10 1022.3
20260904031911 59 0.0 0.0 0.00 0.00 0.00 10 1022.3
20260904031412 60 0.0 0.0 0.00 0.00 0.00 10 1022.4
20260904030912 60 0.0 0.0 0.00 0.00 0.00 10 1022.3
20260904030412 60 0.0 0.0 0.00 0.00 0.00 10 1022.4
20260904025912 60 0.0 0.0 0.00 0.00 0.00 10 1022.4
20260904025412 60 0.0 0.0 0.00 0.00 0.00 10 1022.5
20260904024913 60 0.0 0.0 0.00 0.00 0.00 10 1022.5
20260904024411 60 0.0 0.0 0.00 0.00 0.00 10 1022.4
20260904023413 60 0.0 0.0 0.00 0.00 0.00 10 1022.5
20260904022912 60 0.0 0.0 0.00 0.00 0.00 10 1022.6
20260904022412 60 0.0 0.0 0.00 0.00 0.00 10 1022.6
20260904021912 60 0.0 0.0 0.00 0.00 0.00 10 1022.7
20260904021412 60 0.0 0.0 0.00 0.00 0.00 10 1022.7
20260904020912 60 0.0 0.0 0.00 0.00 0.00 10 1022.7
20260904020412 60 0.0 0.0 0.00 0.00 0.00 10 1022.9
20260904015912 60 0.0 0.0 0.00 0.00 0.00 10 1022.8
20260904015411 60 0.0 0.0 0.00 0.00 0.00 10 1022.8
20260904014916 60 0.0 0.0 0.00 0.00 0.00 10 1022.9
20260904014416 60 0.0 0.0 0.00 0.00 0.00 10 1023.1
20260904013912 60 0.0 0.0 0.00 0.00 0.00 10 1023.1
20260904013412 60 0.0 0.0 0.00 0.00 0.00 10 1023.1
20260904012912 60 0.0 0.0 0.00 0.00 0.00 10 1023.2
20260904012412 60 0.0 0.0 0.00 0.00 0.00 10 1023.2
20260904011413 60 0.0 0.0 0.00 0.00 0.00 10 1023.2
20260904010913 60 0.0 0.0 0.00 0.00 0.00 10 1023.4
20260904010412 60 0.0 0.0 0.00 0.00 0.00 10 1023.4
20260904005912 60 0.0 0.0 0.00 0.00 0.00 10 1023.4
20260904005411 61 0.0 0.0 0.00 0.00 0.00 10 1023.4
20260904004412 61 0.0 0.0 0.00 0.00 0.00 10 1023.5
20260904003911 61 0.0 0.0 0.00 0.00 0.00 10 1023.6
20260904003411 61 0.0 0.0 0.00 0.00 0.00 10 1023.6
20260904002911 61 0.0 0.0 0.00 0.00 0.00 10 1023.7
20260904002411 61 0.0 0.0 0.00 0.00 0.00 10 1023.5
20260904001912 61 0.0 0.0 0.00 0.00 0.00 10 1023.7
20260904001412 61 0.0 0.0 0.00 0.00 0.00 10 1023.7
20260904000912 61 0.0 0.0 0.00 0.00 0.00 10 1023.8
20260904000412 61 0.0 0.0 0.00 0.00 0.00 10 1023.9
20260903235912 62 0.0 0.0 0.00 0.00 0.00 10 1023.8
20260903234913 62 0.0 0.0 0.00 0.00 0.00 10 1023.9
20260903234411 62 0.0 0.0 0.00 0.00 0.00 10 1023.9
20260903233411 62 0.0 0.0 0.00 0.00 0.00 10 1023.9
20260903232911 62 0.0 0.0 0.00 0.00 0.00 10 1023.8
20260903232412 62 0.0 0.0 0.00 0.00 0.00 10 1024.0
20260903231912 62 0.0 0.0 0.00 0.00 0.00 10 1024.1
20260903231411 62 0.0 0.0 0.00 0.00 0.00 10 1024.0
20260903230412 62 0.0 0.0 0.00 0.00 0.00 10 1024.2
20260903225912 62 0.0 0.0 0.00 0.00 0.00 10 1024.1
20260903225412 62 0.0 0.0 0.00 0.00 0.00 10 1024.1
20260903224912 62 0.0 0.0 0.00 0.00 0.00 10 1024.2
20260903224413 62 0.0 0.0 0.00 0.00 0.00 10 1024.2
20260903223911 62 0.0 0.0 0.00 0.00 0.00 10 1024.1
20260903222412 62 0.0 0.0 0.00 0.00 0.00 10 1024.3